Weather in Poznan

Poland     52°24′29″N   16°55′38″E
temp.,
°C
wind,
m/s
gust,
m/s
humid.,
%
clouds,
%
prec.,
mm/h
press.,
hPa
HPBL,
m
1 july, fri
fri123:00+21se228292 2.1 101330
02:00+20e33847 2.1 101239
05:00+19ese22830 0.6 101228
08:00+25e35730 0.6 1011264
11:00+30se23480 0.0 1011804
14:00+34s35350 0.0 10101992
17:00+27w81162100 1.1 1009672
20:00+19wnw61194100 23.1 1013359
2 july, sat
sat223:00+17wnw71392100 0.1 1017715
02:00+16wnw61192100 0.9 1019658
05:00+15wnw61188100 0.0 1021567
08:00+16wnw687961 0.0 1023752
11:00+20nw56540 0.0 10241281
14:00+24nw344424 0.0 10241956
17:00+25n234018 0.0 10232094
20:00+22ne23558 0.0 102271
3 july, sun
sun323:00+18ene11550 0.0 102312
02:00+15ene35690 0.0 102388
05:00+14se34800 0.0 102271
08:00+20sse23600 0.0 1022308
11:00+24sse33445 0.0 10211469
14:00+27sse33365 0.0 10201961
17:00+28sse23340 0.0 10182165
20:00+25se23470 0.0 101771
4 july, mon
mon423:00+21sse512575 0.0 1017271
02:00+19sse4116763 0.0 1017244
05:00+17s3870100 0.0 1016187
08:00+22ssw11615 0.1 1017297
11:00+26nw44480 0.0 10181118
14:00+28wnw45392 0.0 10172184
17:00+28nw553771 0.0 10172020
20:00+23nnw355644 0.0 1018323
5 july, tue
tue523:00+20wnw22595 0.0 101917
02:00+16ne11675 0.0 101917
05:00+15wnw34765 0.0 102072
08:00+19nw56681 0.0 1021488
11:00+23nw56410 0.0 10221756
14:00+24wnw68355 0.0 10212450
17:00+25wnw78315 0.0 10202647
20:00+21wnw47415 0.0 1020444